Regional Weather Roundup
Issued by NWS

Home | Current Version | Previous Version | Graphics & Text | Print | Product List | Glossary On
Versions: 1 2 3 4 5 6 7 8 9 10 11 12 13 14 15 16 17 18 19 20 21 22 23 24 25 26 27 28 29 30 31 32 33 34 35 36 37 38 39 40 41 42 43 44 45 46 47 48 49 50
688
ASUS43 KDMX 210701
RWRIA

WEATHER ROUNDUP FOR IOWA
NATIONAL WEATHER SERVICE DES MOINES IA
200 AM CDT FRI JUL 21 2017

NOTE: "FAIR" INDICATES FEW OR NO CLOUDS BELOW 12,000 FEET WITH NO
SIGNIFICANT WEATHER AND/OR OBSTRUCTIONS TO VISIBILITY.

* - THESE STATIONS ARE NOT NWS STATIONS...THUS NOT UNDER NWS
QUALITY CONTROL.  THEY ALSO DO NOT REPORT WEATHER SUCH
AS PRECIPITATION OR FOG.

IAZ001>003-012>014-020>022-031>034-043>046-210800-
   NORTHWEST IOWA

CITY           SKY/WX    TMP DP  RH WIND       PRES   REMARKS
CARROLL *      CLOUDY    73  72  94 E6        29.95R
CHEROKEE *     CLOUDY    72  69  92 CALM      29.92F
DENISON *      CLOUDY    73  70  88 NE5       29.94S
ORANGE CITY *  CLOUDY    75  72  88 E7        29.92S
SHELDON *      CLOUDY    75  73  94 E7        29.92S
SIOUX CITY     CLOUDY    74  69  85 SE9       29.88F
SPENCER        CLOUDY    75  73  93 E8        29.95S
STORM LAKE *   PTCLDY    72  66  83 SE8G15    29.95S
$$

IAZ055>058-069>071-079>083-090>094-210800-
   SOUTHWEST IOWA

CITY           SKY/WX    TMP DP  RH WIND       PRES   REMARKS
ATLANTIC *     CLOUDY    77  73  88 S6        29.93R
AUDUBON *      MOCLDY    73  70  88 CALM      29.95S
CLARINDA *       N/A     81  75  83 S5        29.94S HX  86
COUNCIL BLFS * CLOUDY    84  73  70 S12G18    29.91R HX  91
CRESTON *      CLOUDY    81  77  89 SE6       29.96F HX  88
HARLAN  *      CLOUDY    77  73  88 CALM      29.95S
LAMONI         CLOUDY    81  78  91 E5        29.96S HX  89
RED OAK *      CLOUDY    81  75  83 CALM      29.92R HX  86
SHENANDOAH *   CLOUDY    82  73  74 S7        29.91S HX  88
$$

IAZ047>049-059>061-072>074-084-210800-
   CENTRAL IOWA

CITY           SKY/WX    TMP DP  RH WIND       PRES   REMARKS
AMES           CLOUDY    72  72 100 CALM      29.94F
ANKENY *       CLOUDY    73  70  88 CALM      29.94F
BOONE *        CLOUDY    72  70  94 E3        29.94F
CHARITON *     CLOUDY    79  72  78 CALM      29.95F HX  82
DES MOINES     CLOUDY    76  73  91 SE3       29.92F
GRINNELL*      DRIZZLE   72  69  93 CALM      29.96F
KNOXVILLE *    CLOUDY    75  72  88 VRB6      29.93S
MARSHALLTOWN   LGT RAIN  71  70  96 CALM      29.94F
NEWTON *       CLOUDY    73  70  88 E6        29.94F
PELLA *        CLOUDY    73  72  94 SE6       29.95S
$$

IAZ004>006-015-016-023>025-035-036-210800-
   NORTH CENTRAL IOWA

CITY           SKY/WX    TMP DP  RH WIND       PRES   REMARKS
ALGONA *       CLOUDY    75  73  94 E6        29.96F
CLARION *      CLOUDY    73  73 100 E7        29.96F
ESTHERVILLE    CLOUDY    72  72 100 SE6       29.96S
FORT DODGE *   CLOUDY    73  68  83 E6        29.96S
MASON CITY     CLOUDY    72  70  93 SE6       29.99F
FOREST CITY *    N/A     73  72  94 E3        29.98S
WEBSTER CITY * CLOUDY    73  72  94 E5        29.93F
IOWA FALLS *     N/A     72  70  93 CALM      29.97F
$$

IAZ007>011-017>019-026>030-037>042-050>054-066-210800-
   NORTHEAST IOWA

CITY           SKY/WX    TMP DP  RH WIND       PRES   REMARKS
CEDAR RAPIDS   RAIN      73  71  93 CALM      29.97F FOG
CHARLES CITY * CLOUDY    72  72 100 E5        29.99S
CLINTON *      LGT RAIN  71  70  96 NW5       30.01R
DECORAH *      CLOUDY    70  68  94 CALM      30.00S
DUBUQUE        CLOUDY    71  69  93 SW5       30.00F
MONTICELLO *   CLOUDY    72  72 100 E5        29.95F
OELWEIN *      CLOUDY    75  73  94 E7        29.95F
WATERLOO       CLOUDY    72  68  87 SW9       29.95S
$$

IAZ064-065-067-068-078-210800-
   EAST CENTRAL IOWA

CITY           SKY/WX    TMP DP  RH WIND       PRES   REMARKS
DAVENPORT      LGT RAIN  71  68  90 NW14G24   30.03R
IOWA CITY      LGT RAIN  73  70  90 NE5       30.02R
MT. PLEASANT * CLOUDY    73  72  94 N9        29.99R
MUSCATINE *    CLOUDY    73  72  94 N10       30.00F
QUAD CITIES    CLOUDY    74  70  87 W20G25    30.02R
$$

IAZ062-063-075>077-085>089-095>099-210800-
   SOUTHEAST IOWA

CITY           SKY/WX    TMP DP  RH WIND       PRES   REMARKS
BURLINGTON     CLOUDY    78  72  81 N6        29.96S HX  80
FAIRFIELD *    CLOUDY    75  70  83 E9        29.95F
FORT MADISON * CLOUDY    75  72  88 CALM      29.97S
KEOKUK *       CLOUDY    77  73  88 N5        29.96S
OSKALOOSA *    DRIZZLE   73  70  89 SW3       29.97R
OTTUMWA        CLOUDY    76  71  85 S3        29.94F
WASHINGTON *   LGT RAIN  73  72  94 NE9       30.00S
$$

ABBREVIATIONS USED IN REMARKS
   TC - TEMPERATURES IN CELSIUS
  WCI - WIND CHILL INDEX
   HX - HEAT INDEX
  VSB - VISIBILITY
$$





USA.gov is the U.S. government's official web portal to all federal, state and local government web resources and services.